TIME,DELAY(SENSOR),PRES,T(CTD),SAL,OXYGEN,RAWTEMP,T(OPTODE),TCPHASE,FLUOR,BETA(BETA700),BETA(BETA412),BETA(BETA440),CDOM,C(CSC),ED(ED412.40),ED(ED444.00),ED(ED489.70),ED(ED554.30),LU(LU411.80),LU(LU443.40),LU(LU489.60),LU(LU554.10),COMP,TILTX,TILTX(TILTY),CHECK
1349471775,5810,497.5199890136719000,6.2687997817993160,34.1511001586914060,69.9163970947265600,610.4025878906250000,6.2477040290832520,50.2766189575195300,52,104,89,79,79,15208,2147749120,2147423369,2148005037,2147871469,2147633362,2147076032,2148242578,2147198299,920,5,13,3523
1349471890,5809,486.5599975585937500,6.4190998077392580,34.1361999511718750,73.5705184936523400,605.5399169921875000,6.4051609039306640,49.7581291198730500,52,107,89,81,80,15209,2147755392,2147423460,2148005952,2147871579,2147634980,2147080256,2148247661,2147199890,1522,4,13,47555
1349472017,5807,475.3900146484375000,6.6114001274108890,34.1318016052246100,79.6362762451171900,599.7470703125000000,6.5924382209777830,48.9494781494140600,51,105,85,81,80,15206,2147752082,2147424429,2148009636,2147874048,2147635446,2147077952,2148242322,2147198573,2069,5,13,47006
1349472147,5805,464.8999938964844000,6.8818998336791990,34.1234016418457000,88.0615005493164000,590.5817260742188000,6.8880920410156250,47.8441696166992200,52,107,89,79,79,15207,2147750473,2147421266,2148006034,2147875638,2147631177,2147087798,2148246208,2147198774,3176,4,13,44694
1349472298,5810,454.2799987792969000,7.1574001312255860,34.1170997619628900,94.9489364624023400,582.8347778320312000,7.1373829841613770,46.9642295837402340,52,106,90,80,79,15206,2147748845,2147423643,2148004781,2147875629,2147630555,2147080621,2148245723,2147198994,429,4,13,32039
1349472460,5809,442.6499938964844000,7.4045000076293945,34.1161003112793000,105.0210037231445300,574.2429199218750000,7.4132251739501950,45.7674903869628900,51,104,85,81,78,15210,2147745929,2147424164,2148005366,2147873627,2147628617,2147084873,2148238281,2147197979,2436,4,13,49909
1349472599,5808,430.9400024414062500,7.6504998207092285,34.1118011474609400,114.5878982543945300,567.4724121093750000,7.6301288604736330,44.6973381042480500,51,106,87,79,78,15207,2147748013,2147422363,2148004864,2147872128,2147627620,2147089060,2148236717,2147199058,1930,5,12,64826
1349472716,5807,420.6700134277344000,7.8896999359130860,34.1083984375000000,121.8364028930664000,559.6851806640625000,7.8791117668151855,43.8708915710449200,50,105,88,79,77,15207,2147744996,2147420553,2148002368,2147872155,2147627739,2147093302,2148238628,2147202395,1824,4,13,44338
1349472843,5810,409.2999877929687500,8.1006002426147460,34.1044006347656250,128.8209991455078000,552.3806762695312000,8.1121959686279300,43.1017494201660160,51,106,87,80,75,15206,2147746322,2147420562,2148005485,2147874084,2147629165,2147095872,2148237083,2147201206,1441,5,13,30043
1349472970,5807,397.7600097656250000,8.3830003738403320,34.1039009094238300,139.8195953369140600,544.6389160156250000,8.3587503433227540,41.9962997436523440,50,106,88,79,76,15207,2147743497,2147421376,2148003401,2147874477,2147621513,2147093677,2148233051,2147199259,1830,5,13,3122
1349473100,5806,386.0100097656250000,8.5844001770019530,34.1063995361328100,149.6436004638672000,538.0739135742188000,8.5674438476562500,41.0623703002929700,50,104,89,79,75,15208,2147743954,2147419145,2148003547,2147872338,2147620571,2147098541,2148229878,2147199506,1016,4,13,63228
1349473215,5808,375.3599853515625000,8.8427000045776370,34.1031990051269500,159.1911926269531200,529.5401000976562000,8.8382110595703120,40.1568717956543000,50,108,90,80,75,15209,2147743259,2147422427,2148001462,2147871981,2147623113,2147102427,2148229449,2147200713,1032,4,13,50787
1349473344,5810,363.8500061035156000,9.0517997741699220,34.1030998229980500,167.8309020996093800,523.0874023437500000,9.0425777435302730,39.3933906555175800,50,106,89,81,73,15208,2147741385,2147423972,2148003858,2147872777,2147620973,2147098706,2148229924,2147198317,904,4,13,62009
1349473471,5809,352.9800109863281000,9.2472000122070310,34.1007003784179700,176.3538055419922000,517.0258178710938000,9.2342681884765620,38.6756095886230500,50,108,87,80,73,15211,2147739958,2147419785,2148002240,2147873554,2147618011,2147107821,2148226331,2147203154,3273,4,13,36207
1349473598,5806,342.6000061035156000,9.6480998992919920,34.1081008911132800,181.2763061523437500,503.8252868652344000,9.6507835388183600,38.1072883605957000,50,105,86,79,72,15209,2147738505,2147422198,2148000731,2147873472,2147617728,2147103122,2148223698,2147204187,500,4,13,22704
1349473752,5812,331.7300109863281000,10.0369997024536130,34.1253013610839840,188.5074005126953000,491.4472045898437500,10.0402402877807620,37.4122390747070300,50,106,90,80,71,15210,2147736420,2147421010,2148001801,2147871451,2147615890,2147101238,2148229705,2147207533,2656,4,14,6819
1349473915,5809,321.3900146484375000,10.5276002883911130,34.1487998962402340,193.7837982177734400,476.1849060058594000,10.5190095901489260,36.8138999938964840,49,106,87,79,71,15206,2147734482,2147423268,2148000393,2147873142,2147610121,2147105901,2148226432,2147206016,2549,4,13,32301
1349474075,5807,308.7000122070312500,11.2354001998901370,34.1604995727539060,201.0417022705078000,453.6115112304687500,11.2244596481323240,35.9878501892089840,49,107,87,79,69,15202,2147734089,2147425033,2148000091,2147870811,2147609810,2147112338,2148221549,2147206189,2110,4,13,34138
1349474190,5808,297.8599853515625000,11.6072998046875000,34.1530990600585940,206.7272949218750000,441.4411926269531000,11.6035604476928710,35.4488487243652340,49,103,86,81,71,15209,2147732361,2147426240,2148003885,2147871405,2147606582,2147122157,2148220050,2147205924,3242,4,14,37344
1349474307,5809,286.6000061035156000,11.9181003570556640,34.1623992919921900,208.4389953613281200,429.3742065429687500,11.9786396026611330,35.1543006896972660,49,102,89,80,69,15206,2147732818,2147424301,2148000054,2147871314,2147605933,2147118226,2148214628,2147206208,3203,4,13,23597
1349474422,5811,276.3999938964844000,12.7363004684448240,34.1985015869140600,209.7017974853515600,405.6093139648437500,12.7151899337768550,34.7057991027832000,49,105,87,81,69,15204,2147728658,2147423908,2148004141,2147870912,2147603026,2147123026,2148214820,2147205540,2499,4,14,44338
1349474561,5808,265.7200012207031000,12.9430999755859380,34.2196006774902340,212.0814056396484400,397.9336853027344000,12.9525203704833980,34.4496307373046900,48,106,87,81,69,15202,2147728356,2147432923,2148030665,2147873069,2147602962,2147134518,2148222866,2147206829,1553,4,14,24017
1349474715,5809,255.2100067138672000,13.5504999160766600,34.2661018371582000,213.5001068115234400,379.7374877929687500,13.5141401290893550,34.0887603759765600,48,107,88,80,69,15201,2147725805,2147439707,2148062637,2147875355,2147596580,2147143259,2148232420,2147208292,2327,4,14,61984
1349474890,5807,243.9600067138672000,14.2885999679565430,34.3372993469238300,214.5653991699218800,354.9495849609375000,14.2771797180175780,33.6534118652343750,49,106,85,81,68,15202,2147724004,2147451446,2148093787,2147870921,2147595035,2147149531,2148243364,2147213705,3377,3,14,6656
1349475050,5809,231.9600067138672000,15.1256999969482420,34.4379005432128900,213.0375976562500000,316.7398986816406000,15.4496402740478520,33.1724891662597660,48,104,90,79,67,15196,2147726180,2147463771,2148130285,2147871286,2147589330,2147162907,2148260114,2147210669,1687,3,14,55304
1349475189,5807,221.6000061035156200,16.6357994079589840,34.6388015747070300,213.6253967285156200,278.9119873046875000,16.6071491241455080,32.5929107666015600,48,106,90,81,67,15197,2147727314,2147481051,2148175570,2147871661,2147584722,2147182683,2148278994,2147216557,290,4,13,34889
1349475336,5804,209.7200012207031200,17.2556991577148440,34.7084999084472660,209.0247039794922000,257.8569030761719000,17.2505493164062500,32.5492210388183600,50,110,88,80,67,15189,2147725961,2147512027,2148258496,2147872576,2147581129,2147205522,2148305444,2147214180,1680,2,14,46908
1349475451,5808,198.5800018310547000,18.3516006469726560,34.8438987731933600,217.0086975097656200,222.1620025634765600,18.3407001495361330,31.6147804260253900,52,105,85,80,65,15186,2147733229,2147558052,2148365750,2147871835,2147580187,2147238838,2148357558,2147220699,3568,3,14,39383
1349475506,5808,193.2299957275390600,18.6695003509521500,34.8928985595703100,220.1278076171875000,210.7382049560547000,18.6895809173584000,31.2936592102050780,53,104,87,79,64,15187,2147740370,2147591945,2148439067,2147875730,2147584667,2147261696,2148391414,2147223268,3216,3,15,22832
1349475581,5806,186.1900024414062500,19.0981006622314450,34.9617004394531250,222.2398986816406200,197.4342956542968800,19.0959606170654300,31.0040302276611330,52,103,90,79,64,15183,2147753280,2147624256,2148512356,2147873691,2147586029,2147283702,2148416155,2147225216,2785,3,14,22596
1349475636,5810,181.3000030517578000,19.2530002593994140,34.9891014099121100,223.7288055419922000,192.6692962646484400,19.2415504455566400,30.8637199401855470,54,105,88,81,64,15182,2147739117,2147552667,2148311497,2147874057,2147581988,2147254253,2148327186,2147222354,2369,3,14,48538
1349475691,5808,176.6199951171875000,19.5412006378173830,35.0298004150390600,223.9985961914062500,183.2411956787109400,19.5296707153320300,30.7232704162597660,56,108,88,81,63,15179,2147750427,2147609755,2148443072,2147874569,2147584347,2147288877,2148398912,2147228781,2724,3,15,2047
1349475746,5809,172.3899993896484400,19.7705001831054700,35.0591011047363300,223.5355072021484400,174.6284027099609400,19.7929706573486330,30.6315803527832030,60,107,88,81,63,15175,2147802496,2147787812,2148884745,2147875958,2147608173,2147402176,2148608850,2147240493,2499,3,15,61130
1349475801,5811,168.6999969482422000,20.2381000518798830,35.1199989318847660,223.4060974121093800,160.6103057861328000,20.2217502593994140,30.4516792297363280,66,111,86,82,64,15167,2147831689,2147851995,2149020461,2147875638,2147616850,2147438454,2148671725,2147246820,2117,3,15,30358
1349475856,5809,165.5599975585937500,20.3602008819580080,35.1374015808105500,224.1002960205078000,156.7920074462890600,20.3385906219482420,30.3663597106933600,72,113,92,81,63,15159,2147851062,2147898742,2149116800,2147879113,2147625673,2147468525,2148717174,2147248658,2773,3,15,8396
1349475935,5808,161.8000030517578000,20.5205993652343750,35.1254005432128900,222.3265991210937500,151.3034973144531200,20.5065994262695300,30.3831195831298830,84,123,91,81,63,15144,2147877860,2147955328,2149221878,2147875702,2147631323,2147495232,2148746368,2147252681,3459,3,15,45406
1349476050,5807,158.1399993896484400,20.7474002838134770,35.1403007507324200,220.5363006591797000,143.8495941162109400,20.7348709106445300,30.3758506774902340,98,120,90,82,64,15132,2147925577,2148062857,2149432201,2147878043,2147651977,2147537106,2148821449,2147259090,1024,2,15,52978
1349476165,5809,153.5599975585937500,20.9960994720459000,35.1678009033203100,221.4378051757812500,135.7832946777343800,20.9820308685302730,30.2240295410156250,107,123,87,82,63,15122,2147986541,2148181037,2149650066,2147880000,2147671021,2147578368,2148884827,2147262445,764,3,15,48224
1349476252,5807,148.6300048828125000,21.0163993835449220,35.1680984497070300,221.8520965576172000,134.7835998535156200,21.0126800537109380,30.1898002624511720,102,125,90,82,63,15115,2148085385,2148390427,2150063725,2147885046,2147706587,2147681234,2149046692,2147278326,764,3,15,37727
1349476307,5809,144.5899963378906200,21.0984992980957030,35.1791000366210940,221.7709045410156200,130.6707000732422000,21.1387691497802730,30.1400909423828120,102,124,88,83,63,15110,2148193380,2148591625,2150428873,2147889261,2147744310,2147757906,2149170688,2147285988,1217,3,15,43408
1349476362,5809,140.5599975585937500,21.4955005645751950,35.2181015014648440,224.1531982421875000,119.8057022094726600,21.4720802307128900,29.8786792755126950,115,127,89,83,63,15102,2148281353,2148755840,2150700077,2147893741,2147782546,2147832722,2149283355,2147297901,731,2,15,62044
1349476417,5806,136.8200073242187500,21.5247001647949220,35.2246017456054700,226.4819946289062500,118.1427993774414000,21.5231304168701170,29.7423000335693360,117,128,92,83,63,15099,2148335442,2148824301,2150782656,2147894052,2147807579,2147863899,2149312950,2147297216,111,3,15,7072
1349476472,5808,132.9499969482422000,21.6070003509521500,35.2372016906738300,228.6257934570312500,115.6333999633789000,21.6001701354980470,29.6049900054931640,117,125,90,83,63,15097,2148540480,2149174006,2151359021,2147905874,2147871085,2147987565,2149459584,2147314898,131,2,15,55477
1349476547,5810,128.3200073242187500,21.6271991729736330,35.2414016723632800,230.3565979003906200,114.8928985595703100,21.6229095458984380,29.5117301940917970,119,125,90,84,61,15097,2148449088,2148898011,2150692699,2147900635,2147838884,2147874258,2149226331,2147297270,62,3,15,16684
1349476626,5806,124.8000030517578100,21.7054004669189450,35.2486991882324200,231.5126037597656200,112.3328018188476600,21.7015304565429700,29.4235801696777340,126,123,90,82,63,15101,2148768585,2149455661,2151649746,2147912685,2147963501,2148130953,2149629293,2147329380,3218,3,15,7613
1349476753,5809,121.4899978637695300,21.8460998535156250,35.2644996643066400,234.3583984375000000,107.8551025390625000,21.8390903472900400,29.2311401367187500,127,123,92,82,62,15094,2149529974,2150913243,2154378459,2147952384,2148266669,2148793590,2150715318,2147414445,2450,2,15,53171
1349476972,5810,117.1699981689453100,21.9699001312255860,35.2597007751464840,236.4414978027343800,103.7630004882812500,21.9648609161376950,29.0816001892089840,132,121,91,83,61,15086,2150520173,2152362678,2156497947,2147989485,2148631862,2149350061,2151438738,2147486134,891,2,15,3275
1349477111,5808,112.9800033569336000,22.1180000305175780,35.2526016235351560,236.3334045410156200,99.0288162231445300,22.1104297637939450,29.0263309478759770,136,124,92,83,61,15065,2148900059,2149148909,2150392493,2147898340,2148009755,2147952201,2149116662,2147299794,608,2,15,51412
1349477214,5811,108.3799972534179700,22.2495994567871100,35.2509994506835940,236.8271942138672000,94.4267272949218800,22.2520103454589840,28.9448204040527340,117,121,93,82,61,15088,2149438464,2149792064,2151151862,2147913993,2148207204,2148205485,2149386166,2147326656,210,2,15,7248
1349477293,5807,103.8600006103515600,22.4186992645263670,35.2467994689941400,238.4996948242187500,89.2792205810546900,22.4104595184326170,28.8026409149169920,110,119,91,84,61,15089,2150177609,2150662198,2152139200,2147934811,2148500809,2148585499,2149806793,2147369005,3461,2,15,63912
1349477360,5808,100.0999984741211000,22.5534992218017580,35.2453994750976560,240.0771942138672000,85.0077667236328100,22.5420093536376950,28.6767406463623050,110,119,90,84,60,15086,2151168886,2151868233,2153583670,2147969974,2148909650,2149136594,2150436096,2147433261,2783,2,15,62116
1349477415,5807,97.2300033569336000,22.6643009185791000,35.2434997558593750,240.6638031005859400,81.4126892089843800,22.6527805328369140,28.6047706604003900,96,122,92,83,60,15089,2153052909,2154329682,2156761161,2148054902,2149645238,2150173302,2151659794,2147552128,2306,2,15,61166
1349477473,5807,94.5100021362304700,22.7364006042480470,35.2426986694335940,241.1459960937500000,78.6480331420898400,22.7380008697509770,28.5481395721435550,96,122,95,84,60,15083,2154189988,2155715200,2158418084,2148111424,2150158418,2150844178,2152401636,2147624146,1419,2,16,53639
1349477528,5805,92.2600021362304700,22.8596000671386720,35.2421989440918000,241.9297943115234400,75.7555313110351600,22.8271999359130860,28.4766197204589840,91,125,92,84,60,15080,2156126619,2158121033,2161369737,2148206793,2151004818,2152008941,2153756224,2147757851,1155,2,16,54263
1349477583,5807,90.4199981689453100,22.9342994689941400,35.2406997680664060,242.3267059326172000,73.5842132568359400,22.8941707611084000,28.4316902160644530,92,126,91,84,61,15076,2159203309,2161954550,2166054061,2148363794,2152253120,2153655990,2155560731,2147934811,1286,2,16,36494
1349477638,5808,88.8600006103515600,23.0466995239257800,35.2377014160156250,242.5787963867187500,70.1773529052734400,22.9993000030517580,28.3776893615722660,93,127,92,86,60,15069,2157998720,2160122468,2163333229,2148293184,2151884525,2153018532,2154733248,2147859163,1407,2,16,14934
1349477705,5809,87.4400024414062500,23.1130008697509770,35.2364006042480500,243.9530944824218800,66.9182128906250000,23.0999107360839840,28.2758293151855470,92,125,94,86,61,15056,2165194797,2169278125,2174672832,2148665636,2154916653,2157141339,2159456000,2148326765,2328,2,16,30009
1349477808,5806,84.9000015258789000,23.4118003845214840,35.2220001220703100,245.1121978759765600,58.0285606384277340,23.3745708465576170,28.1140499114990230,90,127,91,85,60,15070,2175156086,2181823972,2189847515,2149298898,2159404123,2163040502,2165997348,2148992082,2234,1,16,12430
1349477863,5810,83.4400024414062500,23.5713005065917970,35.2117996215820300,245.9857025146484400,52.3969802856445300,23.5487499237060550,28.0057792663574220,91,128,94,85,58,15051,2176705005,2183222912,2190753042,2149374848,2160279451,2163862244,2166515812,2149058166,1947,2,16,63219
1349477918,5807,82.4599990844726600,23.7670001983642580,35.2066993713378900,246.7098999023437500,46.4685783386230500,23.7322597503662100,27.9007492065429700,83,129,92,84,59,15050,2175454253,2181139364,2187576612,2149280548,2159889865,2163066651,2165228598,2148936585,1280,2,16,7080
1349478128,5806,79.7900009155273400,23.8262996673584000,35.2080993652343750,248.7239990234375000,43.7562484741210940,23.8162803649902340,27.7801494598388670,81,129,90,85,59,15053,2163292242,2164482825,2165907117,2148497526,2154927652,2155761792,2156459318,2148056987,639,2,16,19576
1349478183,5807,77.9300003051757800,23.9048004150390620,35.2075004577636700,248.7313995361328000,40.2956886291503900,23.9235191345214840,27.7369899749755860,81,131,95,86,60,15047,2168262409,2169831533,2171409929,2148727780,2157751881,2159026340,2159656603,2148372873,317,1,16,50682
1349478250,5808,76.2200012207031200,24.2261009216308600,35.1973991394043000,248.1997070312500000,31.1147403717041000,24.2083206176757800,27.6470794677734380,83,135,93,87,57,15050,2190322432,2196238948,2201781878,2150263378,2168090697,2171707218,2172558235,2149741028,352,1,16,8304
1349478412,5808,74.0299987792968800,24.6054000854492200,35.2020988464355500,247.7073059082031200,18.3623008728027340,24.6046295166015620,27.5116996765136720,76,129,92,86,57,15040,2197585792,2203257636,2207991844,2150713499,2173571565,2177554304,2177509220,2150253403,156,1,15,43150
1349478479,5810,71.9899978637695300,24.8104991912841800,35.2177009582519500,247.3462066650390600,12.3712501525878900,24.7911090850830080,27.4540290832519530,75,128,95,86,56,15030,2201370861,2207047012,2211509522,2151072649,2176190372,2180099291,2179449901,2150474806,3214,2,16,7921
1349478546,5808,69.8000030517578100,24.8274993896484380,35.2206993103027340,247.3359069824218800,11.2782096862792970,24.8251590728759770,27.4410800933837900,72,129,92,84,59,15035,2205893686,2211393197,2215315748,2151598491,2179265216,2183017892,2181596370,2150771830,2905,2,16,53040
1349478601,5808,68.1399993896484400,25.1716003417968750,35.2394981384277340,246.1240997314453000,1.7573740482330322,25.1219902038574220,27.3768405914306640,71,129,93,85,59,15028,2207691520,2212618496,2215942363,2151912685,2181055149,2184561846,2182497636,2150915840,3174,1,16,45565
1349478715,5808,66.3099975585937500,25.5435009002685550,35.2725982666015600,244.8923034667968800,-9.7712335586547850,25.4821395874023440,27.2894096374511720,70,129,95,86,58,15036,2201326400,2203782235,2204488027,2151198838,2178919990,2180916205,2177919360,2150413339,2918,2,15,45144
1349478914,5812,64.4100036621093800,25.7823009490966800,35.2748985290527340,243.0662994384765600,-19.1056098937988280,25.7743301391601560,27.2549400329589840,68,127,97,87,56,15033,2222138724,2227272676,2229454939,2153308205,2194474816,2197544292,2192040987,2151994404,2270,2,16,38539
1349479017,5807,61.2299995422363300,25.8707008361816400,35.2742004394531250,242.0066070556640600,-22.1473007202148440,25.8696594238281250,27.2641201019287100,68,129,93,86,59,15027,2233070848,2237976969,2239385682,2154774043,2204460571,2207060187,2199013083,2152887204,2089,2,16,28627
1349479072,5808,59.0099983215332000,26.0886993408203120,35.2765007019043000,240.2279052734375000,-28.5474700927734380,26.0704593658447270,27.2641696929931640,66,128,93,86,56,15031,2239212699,2243488173,2243990729,2155771638,2211537307,2213527725,2203406189,2153475785,1707,1,17,18943
1349479127,5803,57.1300010681152340,26.2870006561279300,35.2802009582519500,238.2888946533203000,-34.8107490539550800,26.2672195434570300,27.2735996246337900,64,127,95,86,53,15030,2240809526,2244396361,2244596352,2156200713,2214625801,2215779456,2204329078,2153610779,1228,2,16,25181
1349479194,5805,55.3400001525878900,26.3866996765136720,35.2872009277343750,236.5310058593750000,-38.1682395935058600,26.3728008270263670,27.3109397888183600,61,130,94,88,53,15037,2227337243,2227727076,2225831414,2154762240,2207893878,2207151195,2195878857,2152643766,321,2,16,17240
1349479285,5811,53.2799987792968750,26.4323005676269530,35.2900009155273440,234.7577972412109400,-40.0427398681640600,26.4317893981933600,27.3675594329834000,60,127,95,84,57,15033,2237839323,2239629467,2238696493,2156799286,2219037677,2218006756,2204456082,2153701979,2918,2,16,42748
1349479363,5804,51.0299987792968750,26.4554004669189450,35.2919006347656250,233.5876007080078000,-40.8437805175781250,26.4570007324218750,27.4108390808105470,59,127,96,86,55,15044,2257278820,2261290121,2262009947,2161179529,2237345929,2235474541,2217681956,2155680182,2792,2,16,18692
1349479418,5807,48.7500000000000000,26.4689006805419920,35.2933006286621100,233.0148010253906200,-41.3035583496093750,26.4714698791503900,27.4310798645019530,59,126,94,86,60,15038,2266974765,2271722834,2272754267,2163390098,2249018048,2245280493,2223891803,2156580397,2558,1,17,7779
1349479473,5810,46.5699996948242200,26.4797992706298830,35.2947006225585940,232.8374023437500000,-41.5719490051269500,26.4799194335937500,27.4359397888183600,60,127,92,87,55,15023,2261223140,2264618075,2264085147,2163291538,2257953051,2252893421,2228742738,2157246043,2352,2,16,61365
1349479528,5809,44.3300018310546900,26.4815998077392580,35.2955017089843750,232.8350067138672000,-41.6823997497558600,26.4834003448486330,27.4347095489501950,59,129,94,86,58,15030,2287134016,2295159524,2298458953,2170774966,2280638546,2274690441,2244504950,2159946569,2236,2,17,18727
1349479583,5803,41.9399986267089840,26.4848003387451170,35.2952995300293000,232.7823028564453000,-41.7852706909179700,26.4866409301757800,27.4358100891113280,58,132,94,86,53,15022,2302921142,2310202349,2312579693,2175396470,2304834688,2295762048,2259074916,2162396068,2199,2,17,40456
1349479638,5808,39.2900009155273440,26.4895000457763670,35.2958984375000000,232.8074951171875000,-41.9473381042480500,26.4917392730712900,27.4327392578125000,57,128,94,86,54,15025,2316805805,2324635227,2327481865,2181573092,2325973531,2313800484,2271067355,2164599323,2121,2,16,39254
1349479696,5807,36.2599983215332000,26.4944992065429700,35.2957000732421900,232.8645935058593800,-42.1204299926757800,26.4971904754638670,27.4279308319091800,58,127,94,85,57,15021,2325918555,2333172516,2335694427,2188185179,2341608822,2326085595,2278348982,2166635867,2192,2,17,29783
1349479751,5804,33.2200012207031250,26.4957008361816400,35.2957992553710940,232.9862060546875000,-42.2023582458496100,26.4997692108154300,27.4215602874755860,56,127,95,85,56,15022,2348985179,2358696265,2363977645,2201545874,2371939538,2354027977,2298868617,2171237275,2314,1,16,19003
1349479806,5810,30.1900005340576170,26.5069007873535160,35.2962989807128900,232.9859008789062500,-42.6310615539550800,26.5132694244384770,27.4161491394042970,56,128,91,86,52,15018,2363616658,2373416923,2378602358,2213022500,2394701659,2373264210,2311666715,2174991049,2261,2,16,13602